Location: Monteux
(44.0348°N, 4.9972°E)
Time: 18:32:21
(UTC+00:00)

Cosmos 2154 Rocket - Pass Details

Date: 30 November 2020
Orbit: 966 x 997 km, 82.9° (Epoch: 23 January)

Event Time Altitude Azimuth Distance (km) Brightness Sun altitude
Rises 16:28:47 0° 350° (N) 3,718 6.9 -4.9°
Reaches altitude 10° 16:31:18 10° 349° (N) 2,768 6.2 -5.3°
Maximum altitude 16:37:40 78° 265° (W) 1,022 4.3 -6.3°
Drops below altitude 10° 16:43:59 10° 180° (S) 2,755 6.7 -7.4°
Sets 16:46:30 0° 179° (S) 3,700 7.3 -7.8°
